Location: *
(58.4167°N, 22.5000°E)
Time: 13:51:44
(UTC+00:00)

Cosmos 2082 Rocket - Pass Details

Date: 22 September 2019
Orbit: 831 x 855 km, 71.0° (Epoch: 19 October)

Event Time Altitude Azimuth Distance (km) Brightness Sun altitude
Rises 17:57:52 0° 285° (WNW) 3,424 7.5 -12.0°
Reaches altitude 10° 18:00:49 10° 300° (WNW) 2,492 6.1 -12.4°
Maximum altitude 18:05:24 24° 353° (N) 1,712 4.1 -12.9°
Drops below altitude 10° 18:10:00 10° 46° (NE) 2,500 4.4 -13.5°
Enters shadow 18:12:36 - 59° (ENE) 3,315 5.0 -13.8°
